Location: Unspecified
(0.0000°N, 0.0000°E)
Time: 20:16:23
(UTC+02:00)

Tiros 1 despin weight - All Passes

Search period start: 22 September 2014 00:00
Search period end: 02 October 2014 00:00
Orbit: 601 x 652 km, 48.2° (Epoch: 22 September)

Date Brightness Start Highest point End Pass type
(mag) Time Alt. Az. Time Alt. Az. Time Alt. Az.
22 Sep - 06:31:45 10° NNW 06:36:04 37° NE 06:40:26 10° ESE visible
22 Sep - 08:14:33 10° W 08:17:42 18° SW 08:20:52 10° S daylight
22 Sep - 18:41:27 10° SSW 18:45:52 62° SE 18:50:15 10° NE daylight
23 Sep - 06:50:41 10° NW 06:55:22 76° SW 07:00:06 10° SE visible
23 Sep - 17:21:16 10° SSE 17:23:33 14° SE 17:25:50 10° E daylight
23 Sep - 19:00:57 10° WSW 19:05:10 41° NW 19:09:20 10° NNE daylight
24 Sep - 05:29:19 10° N 05:33:05 24° NE 05:36:53 10° ESE visible
24 Sep - 07:10:45 10° WNW 07:14:41 26° SW 07:18:39 10° S visible
24 Sep - 17:38:44 10° SSW 17:42:55 38° SE 17:47:03 10° ENE daylight
24 Sep - 19:22:00 10° W 19:24:29 15° NW 19:26:57 10° NNW daylight
25 Sep - 05:47:45 10° NNW 05:52:23 69° NE 05:57:05 10° SE visible
25 Sep - 17:57:45 10° SW 18:02:13 68° NW 18:06:37 10° NNE daylight
26 Sep - 04:27:14 10° NNE 04:30:04 16° NE 04:32:55 10° E visible
26 Sep - 06:07:18 10° WNW 06:11:40 40° SW 06:16:06 10° SSE visible
26 Sep - 16:36:13 10° S 16:39:56 25° SE 16:43:37 10° ENE daylight
26 Sep - 18:17:59 10° WSW 18:21:30 22° NW 18:24:59 10° N daylight
27 Sep - 04:44:59 10° NNW 04:49:23 43° NE 04:53:52 10° ESE visible
27 Sep - 06:28:24 10° W 06:31:02 15° SW 06:33:41 10° SSW visible
27 Sep - 16:54:44 10° SW 16:59:15 76° SE 17:03:41 10° NE daylight
28 Sep - 05:04:04 10° NW 05:08:40 63° SW 05:13:20 10° SSE visible
28 Sep - 15:34:02 10° S 15:36:55 17° SE 15:39:47 10° E daylight
28 Sep - 17:14:24 10° WSW 17:18:31 35° NW 17:22:34 10° NNE daylight
29 Sep - 03:42:25 10° N 03:46:23 28° NE 03:50:23 10° ESE night (unlit)
29 Sep - 05:24:21 10° W 05:27:59 22° SW 05:31:38 10° S visible
29 Sep - 15:51:53 10° SSW 15:56:15 47° SE 16:00:33 10° NE daylight
29 Sep - 17:35:58 10° WNW 17:37:50 12° NW 17:39:41 10° NNW daylight
30 Sep - 04:01:01 10° NW 04:05:39 83° NE 04:10:21 10° SE night (unlit)
30 Sep - 14:32:49 10° SE 14:33:51 11° SE 14:34:54 10° ESE daylight
30 Sep - 16:11:04 10° SW 16:15:31 56° NW 16:19:53 10° NNE daylight
01 Oct - 02:40:09 10° N 02:43:21 19° NE 02:46:34 10° E night (unlit)
01 Oct - 04:20:45 10° WNW 04:24:55 33° SW 04:29:10 10° SSE night (unlit)
01 Oct - 14:49:14 10° S 14:53:14 30° SE 14:57:10 10° ENE daylight
01 Oct - 16:31:34 10° W 16:34:48 19° NW 16:38:00 10° N daylight
